{"data":{"norad_id":63733,"epoch":"2026-09-21T10:10:33.496320Z","epoch_age_seconds":124803,"freshness":"FRESH","line1":"1 63733U 25088K   26264.42399880  .00003538  00000+0  49259-3 0  9998","line2":"2 63733  51.9009 315.0797 0000473  62.0093 298.0917 14.79952314 76479","mean_motion":14.79952314,"eccentricity":4.73e-5,"inclination_deg":51.9009,"raan_deg":315.0797,"arg_perigee_deg":62.0093,"mean_anomaly_deg":298.0917,"bstar":0.00049259,"rev_number":7647,"period_min":97.300432343525,"perigee_km":629.14320029455,"apogee_km":629.80612035761,"semimajor_km":7007.6116603261,"source":"CELESTRAK","updated_at":"2026-09-22T09:00:29.317571Z"}}